Tracking 28096 objects as of 27-Sep-2023
HD Live streaming from Space Station
objects crossing your sky now

COSMOS 886 DEB

Track COSMOS 886 DEB now!
10-day predictions


NORAD ID: 14502
Int'l Code: 1976-126BP
Perigee: 555.1 km
Apogee: 1,687.4 km
Inclination: 65.8 °
Period: 107.6 minutes
Semi major axis: 7492 km
RCS: 0.0064 m2 (small)
Launch date: December 27, 1976
Source: Commonwealth of Independent States (former USSR) (CIS)
Launch site: TYURATAM MISSILE AND SPACE COMPLEX (TTMTR)

Note: This is SATELLITE DEBRIS
Your satellite tracking list
Your tracking list is empty




NASA's NSSDC Master Catalog

Two Line Element Set (TLE):
1 14502U 76126BP  23270.37329365  .00007049  00000-0  23823-2 0  9996
2 14502  65.7852  10.0814 0755659 141.0049 289.1362 13.38708176 24491
Source of the keplerian elements: AFSPC